| time (UTC) | temp F | wind direction | speed MPH | gust MPH | rain 1hr in | rain 24hr in | rain mn in | humidity % | barometer mb |
| 20260507193036 | 58 | 166 | 2.0 | 7.0 | 0.00 | 0.30 | 0.00 | 22 | 1020.6 |
| 20260507191533 | 58 | 270 | 4.0 | 8.0 | 0.00 | 0.30 | 0.00 | 22 | 1020.8 |
| 20260507190035 | 58 | 268 | 0.0 | 4.0 | 0.00 | 0.30 | 0.00 | 22 | 1021.2 |
| 20260507184527 | 58 | 304 | 1.0 | 6.0 | 0.00 | 0.30 | 0.00 | 21 | 1021.4 |
| 20260507183027 | 56 | 158 | 1.0 | 5.0 | 0.00 | 0.30 | 0.00 | 22 | 1021.8 |
| 20260507181522 | 57 | 142 | 1.0 | 8.0 | 0.00 | 0.30 | 0.00 | 23 | 1021.9 |
| 20260507180021 | 56 | 162 | 1.0 | 6.0 | 0.00 | 0.30 | 0.00 | 25 | 1022.5 |
| 20260507174517 | 55 | 252 | 1.0 | 7.0 | 0.00 | 0.30 | 0.00 | 21 | 1022.6 |
| 20260507173016 | 55 | 221 | 0.0 | 5.0 | 0.00 | 0.30 | 0.00 | 22 | 1022.7 |
| 20260507171512 | 53 | 200 | 0.0 | 4.0 | 0.00 | 0.30 | 0.00 | 19 | 1023.1 |
| 20260507170009 | 52 | 205 | 0.0 | 3.0 | 0.00 | 0.30 | 0.00 | 22 | 1023.4 |
| 20260507164505 | 50 | 196 | 0.0 | 2.0 | 0.00 | 0.30 | 0.00 | 23 | 1023.7 |
| 20260507163003 | 49 | 269 | 0.0 | 3.0 | 0.00 | 0.30 | 0.00 | 18 | 1024.0 |
| 20260507161601 | 46 | 248 | 0.0 | 0.0 | 0.00 | 0.30 | 0.00 | 23 | 1024.4 |
| 20260507160100 | 45 | 136 | 0.0 | 0.0 | 0.00 | 0.30 | 0.00 | 26 | 1024.7 |
| 20260507154551 | 42 | 108 | 0.0 | 0.0 | 0.00 | 0.30 | 0.00 | 28 | 1025.0 |
| 20260507153047 | 38 | 267 | 0.0 | 0.0 | 0.00 | 0.30 | 0.00 | 34 | 1025.1 |
| 20260507151545 | 34 | 267 | 0.0 | 0.0 | 0.00 | 0.30 | 0.00 | 45 | 1025.3 |
| 20260507150038 | 32 | 267 | 0.0 | 0.0 | 0.00 | 0.30 | 0.00 | 47 | 1025.4 |
| 20260507144536 | 28 | 267 | 0.0 | 0.0 | 0.00 | 0.30 | 0.00 | 52 | 1025.7 |
| 20260507143034 | 26 | 267 | 0.0 | 0.0 | 0.00 | 0.30 | 0.00 | 59 | 1025.8 |
| 20260507141536 | 24 | 267 | 0.0 | 0.0 | 0.00 | 0.30 | 0.00 | 65 | 1025.7 |
| 20260507140031 | 22 | 267 | 0.0 | 0.0 | 0.00 | 0.30 | 0.00 | 68 | 1025.7 |
| 20260507134530 | 21 | 267 | 0.0 | 0.0 | 0.00 | 0.30 | 0.00 | 75 | 1025.6 |
| 20260507133028 | 20 | 267 | 0.0 | 0.0 | 0.00 | 0.30 | 0.00 | 79 | 1025.5 |
| 20260507131535 | 19 | 267 | 0.0 | 0.0 | 0.00 | 0.30 | 0.00 | 78 | 1025.3 |
| 20260507130026 | 19 | 267 | 0.0 | 0.0 | 0.00 | 0.30 | 0.00 | 78 | 1025.3 |
| 20260507124526 | 19 | 267 | 0.0 | 0.0 | 0.00 | 0.30 | 0.00 | 79 | 1025.2 |
| 20260507123027 | 19 | 267 | 0.0 | 0.0 | 0.00 | 0.30 | 0.00 | 78 | 1025.1 |
| 20260507121522 | 19 | 267 | 0.0 | 0.0 | 0.00 | 0.30 | 0.00 | 80 | 1025.0 |
| 20260507120021 | 19 | 267 | 0.0 | 0.0 | 0.00 | 0.30 | 0.00 | 78 | 1025.0 |
| 20260507114518 | 19 | 267 | 0.0 | 0.0 | 0.00 | 0.30 | 0.00 | 77 | 1024.8 |
| 20260507113016 | 20 | 267 | 0.0 | 0.0 | 0.00 | 0.30 | 0.00 | 77 | 1024.6 |
| 20260507111515 | 20 | 267 | 0.0 | 0.0 | 0.00 | 0.30 | 0.00 | 76 | 1024.5 |
| 20260507110015 | 20 | 267 | 0.0 | 0.0 | 0.00 | 0.30 | 0.00 | 76 | 1024.1 |
| 20260507104511 | 21 | 267 | 0.0 | 0.0 | 0.00 | 0.30 | 0.00 | 75 | 1023.9 |
| 20260507103010 | 21 | 275 | 0.0 | 0.0 | 0.00 | 0.30 | 0.00 | 74 | 1023.9 |
| 20260507101510 | 21 | 275 | 0.0 | 0.0 | 0.00 | 0.30 | 0.00 | 74 | 1023.9 |
| 20260507100013 | 22 | 286 | 0.0 | 0.0 | 0.00 | 0.30 | 0.00 | 73 | 1023.5 |
| 20260507094505 | 22 | 276 | 0.0 | 0.0 | 0.00 | 0.30 | 0.00 | 73 | 1023.4 |
| 20260507093002 | 22 | 259 | 0.0 | 1.0 | 0.00 | 0.30 | 0.00 | 72 | 1023.4 |
| 20260507091606 | 23 | 27 | 0.0 | 1.0 | 0.00 | 0.30 | 0.00 | 73 | 1023.2 |
| 20260507090113 | 24 | 235 | 0.0 | 1.0 | 0.00 | 0.30 | 0.00 | 72 | 1022.9 |
| 20260507084559 | 23 | 255 | 0.0 | 1.0 | 0.00 | 0.30 | 0.00 | 72 | 1023.0 |
| 20260507083101 | 24 | 240 | 0.0 | 1.0 | 0.00 | 0.30 | 0.00 | 69 | 1022.9 |
| 20260507081557 | 24 | 243 | 0.0 | 2.0 | 0.00 | 0.30 | 0.00 | 70 | 1022.9 |
| 20260507080051 | 24 | 248 | 0.0 | 2.0 | 0.00 | 0.30 | 0.00 | 72 | 1023.0 |
| 20260507074548 | 26 | 258 | 0.0 | 1.0 | 0.00 | 0.30 | 0.00 | 68 | 1023.1 |
| 20260507073057 | 28 | 80 | 0.0 | 3.0 | 0.00 | 0.30 | 0.00 | 57 | 1022.8 |
| 20260507071543 | 27 | 74 | 0.0 | 1.0 | 0.00 | 0.30 | 0.00 | 60 | 1022.5 |
| 20260507070105 | 26 | 68 | 0.0 | 0.0 | 0.00 | 0.30 | 0.00 | 63 | 1022.6 |
| 20260507064543 | 27 | 68 | 0.0 | 2.0 | 0.00 | 0.30 | 0.00 | 61 | 1022.4 |
| 20260507063038 | 27 | 65 | 0.0 | 2.0 | 0.00 | 0.30 | 0.00 | 64 | 1022.5 |
| 20260507061535 | 28 | 70 | 0.0 | 2.0 | 0.00 | 0.30 | 0.00 | 61 | 1022.4 |
| 20260507060032 | 29 | 44 | 0.0 | 3.0 | 0.00 | 0.30 | 0.00 | 60 | 1022.4 |
| 20260507054529 | 28 | 98 | 0.0 | 3.0 | 0.00 | 0.30 | 0.30 | 62 | 1022.2 |
| 20260507053027 | 28 | 77 | 0.0 | 0.0 | 0.00 | 0.30 | 0.30 | 61 | 1021.9 |
| 20260507051525 | 27 | 65 | 0.0 | 0.0 | 0.00 | 0.30 | 0.30 | 65 | 1021.7 |
| 20260507050031 | 27 | 245 | 0.0 | 0.0 | 0.00 | 0.30 | 0.30 | 64 | 1021.4 |
| 20260507044538 | 27 | 94 | 0.0 | 0.0 | 0.00 | 0.30 | 0.30 | 64 | 1021.1 |
| 20260507043019 | 27 | 243 | 0.0 | 0.0 | 0.00 | 0.30 | 0.30 | 66 | 1021.0 |
| 20260507041517 | 27 | 243 | 0.0 | 0.0 | 0.00 | 0.30 | 0.30 | 67 | 1020.9 |
| 20260507040017 | 28 | 243 | 0.0 | 0.0 | 0.00 | 0.30 | 0.30 | 63 | 1020.5 |
| 20260507034512 | 28 | 243 | 0.0 | 0.0 | 0.00 | 0.30 | 0.30 | 64 | 1020.0 |
| 20260507033010 | 29 | 94 | 0.0 | 0.0 | 0.00 | 0.30 | 0.30 | 63 | 1019.9 |
| 20260507031506 | 30 | 94 | 0.0 | 1.0 | 0.00 | 0.30 | 0.30 | 62 | 1019.6 |
| 20260507030005 | 31 | 78 | 0.0 | 1.0 | 0.00 | 0.30 | 0.30 | 60 | 1019.2 |
| 20260507024501 | 33 | 101 | 0.0 | 1.0 | 0.00 | 0.30 | 0.30 | 52 | 1018.8 |
| 20260507023059 | 33 | 56 | 0.0 | 2.0 | 0.00 | 0.30 | 0.30 | 48 | 1018.5 |
| 20260507021616 | 33 | 75 | 0.0 | 4.0 | 0.00 | 0.30 | 0.30 | 52 | 1018.0 |
| 20260507020104 | 34 | 61 | 0.0 | 3.0 | 0.00 | 0.30 | 0.30 | 50 | 1017.6 |
| 20260507014611 | 34 | 18 | 0.0 | 4.0 | 0.00 | 0.30 | 0.30 | 51 | 1017.3 |
| 20260507013054 | 35 | 154 | 0.0 | 6.0 | 0.00 | 0.30 | 0.30 | 53 | 1017.0 |
| 20260507011547 | 36 | 231 | 1.0 | 5.0 | 0.00 | 0.30 | 0.30 | 53 | 1016.6 |
| 20260507010054 | 38 | 167 | 2.0 | 5.0 | 0.00 | 0.30 | 0.30 | 49 | 1016.2 |
| 20260507004543 | 40 | 233 | 1.0 | 7.0 | 0.00 | 0.30 | 0.30 | 49 | 1015.7 |
| 20260507003040 | 41 | 238 | 2.0 | 8.0 | 0.00 | 0.30 | 0.30 | 48 | 1015.4 |
| 20260507001537 | 41 | 221 | 2.0 | 7.0 | 0.00 | 0.30 | 0.30 | 48 | 1015.2 |
| 20260507000036 | 40 | 225 | 3.0 | 11.0 | 0.00 | 0.30 | 0.30 | 47 | 1014.9 |
| 20260506234534 | 41 | 229 | 4.0 | 11.0 | 0.00 | 0.30 | 0.30 | 49 | 1014.8 |
| 20260506233033 | 40 | 141 | 5.0 | 10.0 | 0.00 | 0.30 | 0.30 | 51 | 1014.5 |
| 20260506231532 | 40 | 193 | 4.0 | 11.0 | 0.00 | 0.30 | 0.30 | 50 | 1014.2 |
| 20260506230028 | 39 | 162 | 3.0 | 12.0 | 0.00 | 0.30 | 0.30 | 53 | 1014.0 |
| 20260506224528 | 38 | 221 | 3.0 | 12.0 | 0.00 | 0.30 | 0.30 | 58 | 1013.7 |
| 20260506223026 | 39 | 158 | 3.0 | 15.0 | 0.01 | 0.30 | 0.30 | 56 | 1013.5 |
| 20260506221527 | 40 | 153 | 2.0 | 10.0 | 0.02 | 0.30 | 0.30 | 53 | 1013.3 |
| 20260506220030 | 39 | 205 | 3.0 | 10.0 | 0.04 | 0.30 | 0.30 | 61 | 1013.1 |
| 20260506214522 | 39 | 183 | 2.0 | 9.0 | 0.05 | 0.30 | 0.30 | 60 | 1013.3 |
| 20260506213020 | 39 | 194 | 2.0 | 10.0 | 0.08 | 0.28 | 0.28 | 58 | 1013.0 |
| 20260506211518 | 38 | 215 | 4.0 | 13.0 | 0.11 | 0.28 | 0.28 | 68 | 1012.9 |
| 20260506210020 | 36 | 106 | 2.0 | 14.0 | 0.12 | 0.26 | 0.26 | 71 | 1012.8 |
| 20260506204516 | 39 | 161 | 2.0 | 8.0 | 0.17 | 0.25 | 0.25 | 63 | 1012.2 |
| 20260506203013 | 37 | 224 | 2.0 | 7.0 | 0.18 | 0.21 | 0.21 | 67 | 1012.2 |
| 20260506201511 | 36 | 207 | 4.0 | 10.0 | 0.17 | 0.17 | 0.17 | 72 | 1012.0 |
| 20260506200010 | 37 | 140 | 3.0 | 9.0 | 0.13 | 0.13 | 0.13 | 70 | 1011.4 |
| 20260506194608 | 37 | 194 | 1.0 | 7.0 | 0.08 | 0.08 | 0.08 | 71 | 1011.3 |